Regional Weather Roundup
Issued by NWS Huntsville, AL

Home | Current Version | Previous Version | Text Only | Print | Product List | Glossary On
Versions: 1 2 3 4 5 6 7 8 9 10 11 12 13 14 15 16 17 18 19 20 21 22 23 24 25 26 27 28 29 30 31 32 33 34 35 36 37 38 39 40 41 42 43 44 45 46 47 48 49 50
000
ASUS44 KHUN 012010
RWRHUN

WEATHER ROUNDUP FOR THE TENNESSEE VALLEY
NATIONAL WEATHER SERVICE HUNTSVILLE AL
300 PM CDT WED JUL 01 2015

ALZ001>004-012100-
NORTHWEST ALABAMA

CITY           SKY/WX    TMP DP  RH WIND       PRES   REMARKS
COURTLAND HCN    N/A     72 N/A N/A NW8         N/A
RUSSELLVILLE     N/A     81 N/A N/A MISG        N/A
SHOALS AIRPORT CLOUDY    73  69  87 N5        30.02S
SHOALS TVA RES   N/A     75 N/A N/A MISG        N/A
$$

ALZ005>007-016-012100-
NORTH CENTRAL ALABAMA

CITY           SKY/WX    TMP DP  RH WIND       PRES   REMARKS
CULLMAN AG STN   N/A     77 N/A N/A SW8         N/A
DECATUR AP     TSTM      69  69 100 N6        30.03S FOG
HUNTSVILLE AP  TSTM      71  67  87 N7        30.03R FOG
HUN NWS/UAH      N/A     69  66  88 CALM        N/A
MERIDIANVILLE  TSTM      68  63  83 N8G14     30.06R
REDSTONE ARSN  TSTM      68  67  94 NE5       30.03R VSB 1/2
VINEMONT AP    FAIR      78  69  73 SW8       30.04R
$$

ALZ008>010-012100-
NORTHEAST ALABAMA

CITY           SKY/WX    TMP DP  RH WIND       PRES   REMARKS
ALBERTVILLE    CLOUDY    77  77 100 CALM      30.02S
FORT PAYNE     CLOUDY    73  68  83 W3        30.02F
SCOTTSBORO AP  CLOUDY    77  70  78 SW6       30.02R
SCOTTSBORO HCN   N/A     77 N/A N/A MISG        N/A
VALLEY HEAD      N/A     75 N/A N/A MISG        N/A
$$

TNZ076-096-097-012100-
SOUTHEASTERN MIDDLE TENNESSEE

CITY           SKY/WX    TMP DP  RH WIND       PRES   REMARKS
TULLAHOMA      CLOUDY    66  64  94 CALM      30.06F
WINCHESTER     CLOUDY    66  66 100 CALM      30.07S
$$

...SURROUNDING SITES...

CITY           SKY/WX    TMP DP  RH WIND       PRES   REMARKS
ATLANTA        PTSUNNY   84  68  58 VRB7      30.03F
ANNISTON       CLOUDY    84  71  65 SW7       30.01F
BIRMINGHAM     CLOUDY    85  71  63 W17       30.04S HX  90
CHATTANOOGA    LGT RAIN  77  72  84 S3        30.01F
CORINTH        FAIR      84  72  65 CALM      29.97F
DALTON         CLOUDY    81  70  69 SW3       30.01F
GADSDEN        CLOUDY   N/A N/A N/A CALM      30.01R THUNDER
GOLDEN TRNGL   PTSUNNY   88  72  58 SW12      30.00F HX  94
HALEYVILLE     PTSUNNY   83  73  71 W10G18    30.03F
JACKSON TN     CLOUDY    83  67  58 W6        29.97F
MEMPHIS        CLOUDY    84  73  69 SW8       29.98F HX  90
NASHVILLE      CLOUDY    71  71 100 S9        29.97F
OXFORD MS      FAIR      82  73  74 W8        30.00F
ROME           LGT RAIN  78  72  81 VRB3      30.00F
SAVANNAH       SUNNY     81  32  17 NE5       29.99F
TUPELO         PTSUNNY   87  74  64 W10G20    29.98F HX  95
TUSCALOOSA     PTSUNNY   91  70  49 SW13      30.00F HX  96
$$

...GULF COAST WEATHER...

CITY           SKY/WX    TMP DP  RH WIND       PRES   REMARKS
GULFPORT       MOSUNNY   86  71  60 S12G22    30.07F HX  91
PASCAGOULA     SUNNY     87  74  64 SW9       30.08F HX  95
MOBILE         MOSUNNY   89  72  56 SW12      30.08F HX  96
GULF SHORES    PTCLDY    87  74  64 SW12      30.08F HX  94
PENSACOLA      MOSUNNY   86  73  65 SW16      30.08F HX  93
DESTIN         MOSUNNY   87  74  64 SW7       30.08F HX  95
PANAMA CITY    CLOUDY    86  74  68 W9        30.09F HX  94
APPALACHICOLA  MOSUNNY   94  70  45 W12       30.08F HX 100
$$




USA.gov is the U.S. government's official web portal to all federal, state and local government web resources and services.